Weerstation Grootegast  Weerstation Grootegast


15 daagse weersverwachting Gaillimh (IE)

  • Overzicht
  • Per uur
  • 15 dagen
  • Extra
  • Vergelijk
  • Kaarten
  • Dagkaart
  • Meer »
  • Info
  • Statistieken
  • Directe link
    Temp 6h Neerslag Wind  
 06:29     20:50    Daglengte: 14:21 Vandaag
07:00
15°
 
3
13:00
18°
 
6
19:00
19°
0.8 mm
8
 06:31     20:48    Daglengte: 14:17 Morgen
01:00
17°
1.7 mm
8
07:00
15°
9.4 mm
5
13:00
16°
 
4
19:00
16°
 
5
 06:32     20:46    Daglengte: 14:14 Donderdag 23 Aug
01:00
14°
 
6
07:00
13°
 
5
13:00
14°
 
8
19:00
13°
2.3 mm
7
Locatie info
Region: Connaught
Latitude: 53.2719°N
Longitude: -9.0489°E
6 masl
Temp/Neerslag /Baro Onweer/Dauwpunt
    Temp Baro 1h Neerslag Dauwpunt Wind UV Bewolking  
 06:29     20:50    Daglengte: 14:21 Vandaag
03:00
15°
1019.0 hPa
48%
13.9°
3
Windvlaag: 1.8 m/s
89%
04:00
15°
1018.6 hPa
14%
13.8°
3
Windvlaag: 2 m/s
85%
05:00
15°
1018.3 hPa
58%
13.8°
3
Windvlaag: 2.1 m/s
76%
06:00
15°
1018.2 hPa
53%
13.8°
4
Windvlaag: 2.5 m/s
84%
07:00
15°
1018.2 hPa
72%
13.8°
3
Windvlaag: 2.3 m/s
86%
08:00
15°
1018.3 hPa
76%
13.7°
3
Windvlaag: 2.6 m/s
88%
09:00
16°
1018.2 hPa
54%
13.9°
3
Windvlaag: 2.9 m/s
91%
10:00
16°
1018.1 hPa
18%
14.5°
4
Windvlaag: 3.3 m/s
91%
11:00
17°
1017.9 hPa
26%
15.0°
5
Windvlaag: 3.7 m/s
90%
12:00
17°
1017.6 hPa
22%
15.3°
6
Windvlaag: 3.8 m/s
81%
13:00
18°
1017.3 hPa
20%
15.0°
6
Windvlaag: 4 m/s
79%
14:00
18°
1017.1 hPa
59%
15.5°
7
Windvlaag: 4.3 m/s
77%
15:00
18°
1016.7 hPa
60%
15.6°
7
Windvlaag: 4.7 m/s
87%
16:00
18°
1016.1 hPa 0.8 mm
81%
16.1°
7
Windvlaag: 4.9 m/s
85%
17:00
18°
1015.6 hPa
31%
16.2°
7
Windvlaag: 4.7 m/s
82%
18:00
18°
1015.0 hPa
36%
16.0°
7
Windvlaag: 5.3 m/s
70%
19:00
19°
1014.5 hPa
22%
15.9°
8
Windvlaag: 5.4 m/s
70%
20:00
18°
1014.1 hPa
16%
15.9°
7
Windvlaag: 5.5 m/s
75%
21:00
18°
1014.0 hPa
18%
16.1°
7
Windvlaag: 5.5 m/s
69%
22:00
18°
1014.0 hPa 0.8 mm
80%
16.1°
7
Windvlaag: 5.2 m/s
90%
23:00
18°
1013.6 hPa
82%
15.9°
7
Windvlaag: 4.8 m/s
90%
 06:31     20:48    Daglengte: 14:17 Morgen
00:00
17°
1013.4 hPa
82%
16.0°
8
Windvlaag: 4.6 m/s
91%
01:00
17°
1013.1 hPa 0.9 mm
82%
16.0°
8
Windvlaag: 4 m/s
91%
02:00
17°
1012.8 hPa 1.3 mm
82%
15.9°
8
Windvlaag: 4 m/s
90%
03:00
17°
1012.5 hPa 1.7 mm
82%
15.7°
7
Windvlaag: 3.9 m/s
88%
04:00
16°
1012.1 hPa 1.7 mm
82%
15.4°
6
Windvlaag: 4 m/s
85%
05:00
16°
1012.0 hPa 2.2 mm
82%
15.1°
6
Windvlaag: 3.5 m/s
82%
06:00
16°
1012.2 hPa 2.5 mm
82%
14.8°
5
Windvlaag: 2 m/s
76%
07:00
15°
1012.7 hPa
81%
14.8°
5
Windvlaag: -2.2 m/s
82%
08:00
15°
1013.3 hPa
18%
14.6°
4
Windvlaag: -2.6 m/s
85%
09:00
15°
1013.8 hPa
56%
14.0°
5
Windvlaag: -2.4 m/s
85%
10:00
15°
1014.4 hPa
20%
13.3°
4
Windvlaag: -2.4 m/s
82%
11:00
15°
1014.8 hPa
19%
13.1°
4
Windvlaag: -2.1 m/s
82%
12:00
16°
1015.0 hPa
17%
12.7°
4
Windvlaag: -1.6 m/s
79%
13:00
16°
1015.2 hPa
22%
12.1°
4
Windvlaag: -0.2 m/s
58%
14:00
17°
1015.4 hPa
56%
12.0°
4
Windvlaag: 0 m/s
53%
15:00
17°
1015.5 hPa
54%
12.0°
4
Windvlaag: 0.2 m/s
66%
16:00
17°
1015.6 hPa
14%
11.1°
4
Windvlaag: 0.7 m/s
65%
17:00
17°
1015.7 hPa
14%
10.5°
5
Windvlaag: 1.3 m/s
68%
18:00
16°
1016.0 hPa
14%
9.7°
5
Windvlaag: 1.4 m/s
44%
19:00
16°
1016.2 hPa
14%
9.5°
5
Windvlaag: 1.8 m/s
49%
20:00
15°
1016.4 hPa
14%
9.3°
5
Windvlaag: 1.6 m/s
51%
21:00
14°
1016.9 hPa
14%
9.3°
5
Windvlaag: 2 m/s
65%
22:00
13°
1016.7 hPa
21%
9.1°
5
Windvlaag: 2.7 m/s
74%
23:00
14°
1016.6 hPa
68%
9.2°
5
Windvlaag: 3.1 m/s
96%
 06:32     20:46    Daglengte: 14:14 Donderdag 23 Aug
00:00
14°
1016.4 hPa
68%
9.9°
5
Windvlaag: 3.1 m/s
100%
01:00
14°
1016.0 hPa
80%
10.6°
6
Windvlaag: 2.9 m/s
100%
02:00
14°
1015.6 hPa
40%
11.0°
6
Windvlaag: 2.8 m/s
89%
03:00
14°
1015.2 hPa
80%
11.2°
7
Windvlaag: 0.6 m/s
85%
04:00
14°
1014.9 hPa
83%
11.5°
6
Windvlaag: 0.5 m/s
88%
05:00
13°
1014.6 hPa
82%
11.1°
6
Windvlaag: 1.4 m/s
88%
06:00
13°
1014.7 hPa
85%
10.0°
6
Windvlaag: 1.3 m/s
66%
07:00
13°
1015.1 hPa
34%
9.2°
5
Windvlaag: 1.2 m/s
52%
08:00
13°
1015.2 hPa
72%
8.4°
5
Windvlaag: 1.7 m/s
24%
09:00
13°
1015.5 hPa
68%
7.4°
7
Windvlaag: 1.6 m/s
60%
10:00
14°
1015.7 hPa
71%
5.7°
7
Windvlaag: 1.7 m/s
47%
11:00
14°
1016.0 hPa
27%
6.5°
8
Windvlaag: 1.6 m/s
52%
12:00
14°
1016.3 hPa
26%
6.9°
8
Windvlaag: 1.6 m/s
48%
13:00
14°
1016.4 hPa
32%
6.8°
8
Windvlaag: 1.6 m/s
70%
14:00
14°
1016.6 hPa
33%
6.8°
8
Windvlaag: 1.6 m/s
60%
15:00
14°
1016.8 hPa
67%
7.5°
8
Windvlaag: 1.5 m/s
59%
16:00
14°
1016.7 hPa 2.3 mm
27%
8.3°
8
Windvlaag: 1.5 m/s
49%
17:00
14°
1016.7 hPa
26%
8.1°
8
Windvlaag: 1.5 m/s
43%
18:00
14°
1017.0 hPa
32%
7.9°
8
Windvlaag: 1.4 m/s
27%
19:00
13°
1017.2 hPa
71%
7.8°
7
Windvlaag: 1.5 m/s
29%
20:00
13°
1017.4 hPa
35%
7.7°
7
Windvlaag: 8.6 m/s
26%
21:00
13°
1017.6 hPa
27%
7.5°
6
Windvlaag: 9.4 m/s
29%
22:00
12°
1017.7 hPa
28%
7.5°
6
Windvlaag: 9.7 m/s
35%
23:00
12°
1017.8 hPa
25%
7.5°
5
Windvlaag: 9.6 m/s
58%
 06:34     20:43    Daglengte: 14:09 Vrijdag 24 Aug
00:00
12°
1017.9 hPa
30%
7.2°
5
Windvlaag: 9.6 m/s
58%
01:00
12°
1018.0 hPa
30%
7.1°
4
Windvlaag: 1.4 m/s
76%
Temp/Neerslag /Baro Onweer/Dauwpunt
    Temp Baro Neerslag Dauwpunt Wind Bewolking  
 06:29     20:50    Daglengte: 14:21 Vandaag
04:00
15°
1018.6 hPa   13.8°
3
85%
07:00
15°
1018.2 hPa   13.8°
3
86%
10:00
16°
1018.1 hPa   14.5°
4
91%
13:00
18°
1017.3 hPa   15.0°
6
79%
16:00
18°
1016.1 hPa 0.8 mm 16.1°
7
85%
19:00
19°
1014.5 hPa   15.9°
8
70%
22:00
18°
1014.0 hPa 0.8 mm 16.1°
7
90%
 06:31     20:48    Daglengte: 14:17 Morgen
01:00
17°
1013.1 hPa 0.9 mm 16.0°
8
91%
04:00
16°
1012.1 hPa 4.7 mm 15.4°
6
85%
07:00
15°
1012.7 hPa 4.7 mm 14.8°
5
82%
10:00
15°
1014.4 hPa   13.3°
4
82%
13:00
16°
1015.2 hPa   12.1°
4
58%
16:00
17°
1015.6 hPa   11.1°
4
65%
19:00
16°
1016.2 hPa   9.5°
5
49%
22:00
13°
1016.7 hPa   9.1°
5
74%
 06:32     20:46    Daglengte: 14:14 Donderdag 23 Aug
01:00
14°
1016.0 hPa   10.6°
6
100%
04:00
14°
1014.9 hPa   11.5°
6
88%
07:00
13°
1015.1 hPa   9.2°
5
52%
10:00
14°
1015.7 hPa   5.7°
7
47%
13:00
14°
1016.4 hPa   6.8°
8
70%
16:00
14°
1016.7 hPa 2.3 mm 8.3°
8
49%
19:00
13°
1017.2 hPa   7.8°
7
29%
22:00
12°
1017.7 hPa   7.5°
6
35%
 06:34     20:43    Daglengte: 14:09 Vrijdag 24 Aug
01:00
12°
1018.0 hPa   7.1°
4
76%
04:00
12°
1017.3 hPa   7.7°
5
90%
07:00
12°
1017.0 hPa   8.0°
4
90%
10:00
12°
1016.7 hPa 0.1 mm 8.6°
5
91%
13:00
12°
1016.4 hPa 0.2 mm 9.1°
5
92%
16:00
13°
1014.5 hPa 0.1 mm 9.3°
5
88%
19:00
13°
1012.5 hPa 0.5 mm 9.4°
4
85%
22:00
12°
1010.1 hPa 0.2 mm 9.8°
3
87%
 06:36     20:41    Daglengte: 14:05 Zaterdag 25 Aug
01:00
12°
1007.5 hPa 1.2 mm 10.4°
2
90%
04:00
11°
1008.6 hPa 1.5 mm 9.5°
4
52%
07:00
10°
1009.9 hPa 1.5 mm 8.5°
6
14%
10:00
12°
1012.2 hPa   8.2°
6
41%
13:00
15°
1014.3 hPa   7.1°
6
67%
16:00
15°
1015.2 hPa 0.2 mm 7.5°
5
43%
19:00
15°
1016.2 hPa 0.2 mm 7.9°
4
19%
22:00
12°
1017.7 hPa   8.2°
3
10%
 06:38     20:39    Daglengte: 14:01 Zondag 26 Aug
01:00
10°
Voelt als: 8.9°
1019.0 hPa   8.1°
2
0%
04:00
Voelt als: 8.6°
1018.8 hPa   8.0°
2
46%
07:00
Voelt als: 8.1°
1018.7 hPa   8.0°
2
91%
10:00
11°
1018.0 hPa   8.7°
3
91%
13:00
13°
1017.3 hPa 0.5 mm 9.2°
4
92%
16:00
13°
1014.7 hPa 0.2 mm 9.6°
5
91%
19:00
13°
1012.2 hPa 0.6 mm 10.1°
6
91%
22:00
14°
1011.7 hPa   11.9°
5
91%
 06:39     20:37    Daglengte: 13:58 Maandag 27 Aug
01:00
14°
1011.2 hPa 0.2 mm 13.5°
5
90%
04:00
13°
1013.0 hPa 0.1 mm 11.4°
4
88%
07:00
12°
1014.8 hPa 0.1 mm 9.2°
4
85%
10:00
13°
1016.6 hPa   8.4°
5
86%
13:00
15°
1018.5 hPa   7.2°
5
87%
16:00
15°
1019.6 hPa   7.1°
5
85%
19:00
14°
1020.7 hPa   7.0°
5
84%
22:00
14°
1021.1 hPa   7.7°
5
87%
 06:41     20:34    Daglengte: 13:53 Dinsdag 28 Aug
01:00
14°
1021.1 hPa   8.6°
5
98%
07:00
14°
1020.8 hPa   10.9°
6
92%
13:00
16°
1022.4 hPa   11.9°
7
92%
19:00
15°
1022.9 hPa   11.2°
6
72%
 06:43     20:32    Daglengte: 13:49 Woensdag 29 Aug
01:00
14°
1023.8 hPa 0.9 mm 10.7°
5
92%
07:00
13°
1024.4 hPa 0.5 mm 10.1°
4
72%
13:00
16°
1026.3 hPa   10.3°
5
90%
19:00
16°
1026.5 hPa   11.2°
4
92%
 06:45     20:30    Daglengte: 13:45 Donderdag 30 Aug
01:00
13°
1027.8 hPa   12.2°
2
85%
07:00
13°
1027.5 hPa   12.4°
1
91%
13:00
18°
1028.4 hPa   14.0°
3
92%
19:00
14°
1033.0 hPa 0.1 mm 9.8°
1
1%
 06:46     20:27    Daglengte: 13:41 Vrijdag 31 Aug
01:00
12°
1026.4 hPa 0.7 mm 10.1°
2
47%
07:00
11°
1025.1 hPa 1.0 mm 9.7°
2
44%
13:00
16°
1025.5 hPa 0.6 mm 11.9°
2
45%
19:00
16°
1025.0 hPa 0.2 mm 12.2°
2
46%
 06:48     20:25    Daglengte: 13:37 Zaterdag 01 Sep
01:00
11°
1025.7 hPa 0.1 mm 9.9°
1
28%
07:00
11°
1024.8 hPa 0.1 mm 9.2°
1
29%
13:00
16°
1024.9 hPa 0.2 mm 11.8°
2
28%
19:00
17°
1023.4 hPa 0.2 mm 13.1°
2
34%
 06:50     20:23    Daglengte: 13:33 Zondag 02 Sep
01:00
12°
1023.1 hPa 0.4 mm 10.9°
2
32%
07:00
12°
1022.1 hPa 0.5 mm 10.4°
2
36%
13:00
17°
1022.0 hPa 0.1 mm 12.9°
3
34%
19:00
17°
1021.0 hPa 0.2 mm 13.3°
3
35%
 06:51     20:20    Daglengte: 13:29 Maandag 03 Sep
01:00
13°
1021.7 hPa 0.2 mm 11.2°
1
33%
07:00
12°
1021.2 hPa 0.2 mm 10.3°
0
39%
13:00
16°
1021.7 hPa 0.3 mm 12.2°
1
44%
19:00
16°
1021.2 hPa 0.7 mm 12.3°
1
39%
 06:53     20:18    Daglengte: 13:25 Dinsdag 04 Sep
01:00
12°
1021.8 hPa 0.2 mm 9.9°
0
26%
07:00
11°
1021.1 hPa 0.2 mm 9.3°
1
31%
13:00
16°
1021.3 hPa 0.3 mm 11.7°
1
40%
19:00
16°
1020.6 hPa 0.7 mm 12.3°
2
44%
 06:55     20:15    Daglengte: 13:20 Woensdag 05 Sep
01:00
12°
1021.1 hPa 0.5 mm 10.2°
1
40%
  CAPE Lifted Index Hail Supercell Tornado SRH 3km CL BTM PRES CL TOP PRES Swiss DWD icon SMHI TS
 06:29     20:50    Daglengte: 14:21 Vandaag
03:00 5 J/kg 5.0 K 0 % 0 % 0 % 0 m²/s² 0 0 9.56 3
04:00 4 J/kg 4.4 K 0 % 0 % 0 % 0 m²/s² 0 0 8.93 3
05:00 5 J/kg 4.1 K 0 % 0 % 0 % 0 m²/s² 0 0 8.51 3
06:00 4 J/kg 3.5 K 0 % 0 % 0 % 0 m²/s² 0 0 7.91 3
07:00 0 J/kg 3.5 K 0 % 0 % 0 % 0 m²/s² 0 0 7.91 3
08:00 0 J/kg 3.5 K 0 % 0 % 0 % 0 m²/s² 0 0 7.88 3
09:00 0 J/kg 3.0 K 0 % 0 % 0 % 0 m²/s² 0 0 7.17 3
10:00 0 J/kg 3.4 K 0 % 0 % 0 % 0 m²/s² 0 0 7.36 3
11:00 0 J/kg 3.9 K 0 % 0 % 0 % 0 m²/s² 0 0 7.29 3
12:00 26 J/kg 3.2 K 0 % 0 % 0 % 0 m²/s² 0 0 5.6 3
13:00 10 J/kg 3.5 K 0 % 0 % 0 % 0 m²/s² 0 0 5.3 3
14:00 12 J/kg 3.0 K 0 % 0 % 0 % 0 m²/s² 0 0 4.5 3
15:00 5 J/kg 2.7 K 0 % 0 % 0 % 0 m²/s² 0 0 4.74 3
16:00 12 J/kg 2.2 K 0 % 0 % 0 % 0 m²/s² 0 0 4.81 80
17:00 4 J/kg 1.7 K 0 % 0 % 0 % 0 m²/s² 0 0 4.31 3
18:00 0 J/kg 1.0 K 0 % 0 % 0 % 0 m²/s² 0 0 2.8 3
19:00 0 J/kg -0.1 K 0 % 0 % 0 % 0 m²/s² 0 0 0.86 3
20:00 5 J/kg 0.4 K 0 % 0 % 0 % 0 m²/s² 0 0 0.7 3
21:00 3 J/kg 0.0 K 0 % 0 % 0 % 0 m²/s² 0 0 0.48 3
22:00 7 J/kg 1.2 K 0 % 0 % 0 % 0 m²/s² 0 0 1.47 80
23:00 7 J/kg 2.6 K 0 % 0 % 0 % 0 m²/s² 0 0 2.69 80
 06:31     20:48    Daglengte: 14:17 Morgen
00:00 8 J/kg 3.7 K 0 % 0 % 0 % 0 m²/s² 0 0 3.7 80
01:00 8 J/kg 6.6 K 0 % 0 % 0 % 0 m²/s² 0 0 6.99 80
02:00 8 J/kg 8.3 K 0 % 0 % 0 % 0 m²/s² 0 0 10.25 80
03:00 13 J/kg 9.1 K 0 % 0 % 0 % 0 m²/s² 0 0 16.87 80
04:00 6 J/kg 10.0 K 0 % 0 % 0 % 0 m²/s² 0 0 21.55 55
05:00 3 J/kg 10.5 K 0 % 0 % 0 % 0 m²/s² 0 0 20.43 61
06:00 2 J/kg 10.8 K 0 % 0 % 0 % 0 m²/s² 0 0 20.28 61
07:00 10 J/kg 11.0 K 0 % 0 % 0 % 0 m²/s² 0 0 19.7 61
08:00 17 J/kg 11.4 K 0 % 0 % 0 % 0 m²/s² 0 0 18.9 3
09:00 34 J/kg 11.1 K 0 % 0 % 0 % 0 m²/s² 0 0 17.67 3
10:00 28 J/kg 11.2 K 0 % 0 % 0 % 0 m²/s² 0 0 16.9 3
11:00 25 J/kg 10.6 K 0 % 0 % 0 % 0 m²/s² 0 0 15.85 3
12:00 34 J/kg 10.6 K 0 % 0 % 0 % 0 m²/s² 0 0 15.34 3
13:00 15 J/kg 11.3 K 0 % 0 % 0 % 0 m²/s² 0 0 15.26 3
14:00 9 J/kg 11.3 K 0 % 0 % 0 % 0 m²/s² 0 0 14.84 3
15:00 1 J/kg 11.5 K 0 % 0 % 0 % 0 m²/s² 0 0 15.04 3
16:00 4 J/kg 11.5 K 0 % 0 % 0 % 0 m²/s² 0 0 15.22 1
17:00 6 J/kg 11.2 K 0 % 0 % 0 % 0 m²/s² 0 0 14.11 2
18:00 6 J/kg 11.0 K 0 % 0 % 0 % 0 m²/s² 0 0 12.92 2
19:00 15 J/kg 9.8 K 0 % 0 % 0 % 0 m²/s² 0 0 12.56 3
20:00 7 J/kg 9.4 K 0 % 0 % 0 % 0 m²/s² 0 0 12.49 3
21:00 9 J/kg 8.6 K 0 % 0 % 0 % 0 m²/s² 0 0 11.12 3
22:00 11 J/kg 7.6 K 0 % 0 % 0 % 0 m²/s² 0 0 10.75 3
23:00 14 J/kg 8.0 K 0 % 0 % 0 % 0 m²/s² 0 0 12.92 3
 06:32     20:46    Daglengte: 14:14 Donderdag 23 Aug
00:00 21 J/kg 8.1 K 0 % 0 % 0 % 0 m²/s² 0 0 13.56 3
01:00 27 J/kg 7.3 K 0 % 0 % 0 % 0 m²/s² 0 0 12.34 3
02:00 55 J/kg 6.4 K 0 % 0 % 0 % 0 m²/s² 0 0 11.29 3
03:00 78 J/kg 5.3 K 0 % 0 % 0 % 0 m²/s² 0 0 10.16 3
04:00 142 J/kg 4.1 K 0 % 0 % 0 % 0 m²/s² 0 0 9.05 3
05:00 86 J/kg 5.5 K 0 % 0 % 0 % 0 m²/s² 0 0 11.47 3
06:00 2 J/kg 7.9 K 0 % 0 % 0 % 0 m²/s² 0 0 14.8 3
07:00 7 J/kg 8.6 K 0 % 0 % 0 % 0 m²/s² 0 0 15.47 3
08:00 34 J/kg 8.6 K 0 % 0 % 0 % 0 m²/s² 0 0 16.22 1
09:00 29 J/kg 8.9 K 0 % 0 % 0 % 0 m²/s² 0 0 16.22 3
10:00 12 J/kg 9.2 K 0 % 0 % 0 % 0 m²/s² 0 0 15.59 2
11:00 43 J/kg 7.7 K 0 % 0 % 0 % 0 m²/s² 0 0 12.92 1
12:00 62 J/kg 6.9 K 0 % 0 % 0 % 0 m²/s² 0 0 11.25 2
13:00 76 J/kg 6.0 K 0 % 0 % 0 % 0 m²/s² 0 0 10.23 3
14:00 94 J/kg 5.3 K 0 % 0 % 0 % 0 m²/s² 0 0 10.37 3
15:00 99 J/kg 5.0 K 0 % 0 % 0 % 0 m²/s² 0 0 10.46 3
16:00 82 J/kg 5.4 K 0 % 0 % 0 % 0 m²/s² 0 0 11.34 3
17:00 67 J/kg 5.8 K 0 % 0 % 0 % 0 m²/s² 0 0 11.59 3
18:00 58 J/kg 6.4 K 0 % 0 % 0 % 0 m²/s² 0 0 12.04 2
19:00 67 J/kg 6.6 K 0 % 0 % 0 % 0 m²/s² 0 0 12.24 1
20:00 60 J/kg 7.0 K 0 % 0 % 0 % 0 m²/s² 0 0 12.34 1
21:00 30 J/kg 7.9 K 0 % 0 % 0 % 0 m²/s² 0 0 13.24 1
22:00 18 J/kg 8.4 K 0 % 0 % 0 % 0 m²/s² 0 0 13.59 1
23:00 4 J/kg 9.1 K 0 % 0 % 0 % 0 m²/s² 0 0 14.56 1
 06:34     20:43    Daglengte: 14:09 Vrijdag 24 Aug
00:00 2 J/kg 10.2 K 0 % 0 % 0 % 0 m²/s² 0 0 15.84 2
01:00 3 J/kg 10.5 K 0 % 0 % 0 % 0 m²/s² 0 0 15.84 3
Temp Baro Wind Neerslag
  EWN Forecast EWN WRFDA DWD ICON FMI HIRLAM MET Norway GFS
 06:29     20:50    Daglengte: 14:21 Vandaag
04:00 15.1° 1018.6 hPa 3.1 m/s 0.0 mm 14.4° 1018.7 hPa 3.6 m/s 0.4 mm 15.3° 1018.6 hPa 4.7 m/s -1.9 mm 15.5° 1018.7 hPa 3.3 m/s 0.0 mm 15.2° 1018.6 hPa 2.7 m/s 0.0 mm 14.3° 1018.4 hPa 3.5 m/s
07:00 15.0° 1018.2 hPa 3.3 m/s 0.0 mm 14.1° 1018.1 hPa 3.1 m/s 0.6 mm 15.7° 1018.1 hPa 3.2 m/s 0.0 mm 15.5° 1018.4 hPa 3.8 m/s 0.0 mm 15.0° 1018.2 hPa 3.1 m/s 0.0 mm 14.1° 1017.7 hPa 3.7 m/s
10:00 16.2° 1018.1 hPa 4.5 m/s 0.0 mm 15.6° 1017.6 hPa 4.1 m/s 0.9 mm 16.2° 1018.4 hPa 2.8 m/s 0.0 mm 16.2° 1018.2 hPa 5.4 m/s 0.0 mm 16.9° 1018.1 hPa 5.0 m/s 0.0 mm 15.2° 1017.8 hPa 4.7 m/s
13:00 18.1° 1017.3 hPa 6.1 m/s 0.0 mm 17.8° 1016.8 hPa 7.2 m/s 2.7 mm 18.0° 1016.9 hPa 4.8 m/s 0.0 mm 17.8° 1017.4 hPa 6.9 m/s 0.0 mm 18.4° 1017.8 hPa 6.1 m/s 0.0 mm 17.1° 1016.4 hPa 6.4 m/s
16:00 18.3° 1016.1 hPa 6.7 m/s 0.8 mm 18.8° 1015.7 hPa 8.2 m/s 3.5 mm 18.1° 1015.5 hPa 4.8 m/s 1.2 mm 17.8° 1016.5 hPa 7.1 m/s 0.0 mm 18.4° 1016.7 hPa 6.4 m/s 0.3 mm 17.9° 1014.7 hPa 8.0 m/s
19:00 18.6° 1014.5 hPa 7.6 m/s 0.0 mm 18.3° 1013.2 hPa 8.4 m/s 3.7 mm 18.2° 1013.9 hPa 8.1 m/s 0.0 mm 19.0° 1014.9 hPa 7.3 m/s 0.0 mm 18.6° 1015.5 hPa 6.3 m/s 0.3 mm 17.6° 1013.3 hPa 8.5 m/s
22:00 17.7° 1014.0 hPa 6.9 m/s 0.8 mm 16.1° 1014.0 hPa 7.0 m/s 7.7 mm 18.5° 1014.0 hPa 7.3 m/s 0.3 mm 18.7° 1013.8 hPa 7.0 m/s 0.0 mm 17.5° 1014.8 hPa 4.9 m/s 0.0 mm 16.2° 1014.0 hPa 7.2 m/s
 06:31     20:48    Daglengte: 14:17 Morgen
01:00 17.2° 1013.1 hPa 7.7 m/s 0.9 mm 14.2° 1014.7 hPa 3.1 m/s 13.4 mm 17.4° 1013.0 hPa 8.8 m/s 1.4 mm 17.5° 1012.8 hPa 8.3 m/s 0.0 mm 17.1° 1013.7 hPa 5.4 m/s 0.3 mm 14.7° 1014.3 hPa 3.8 m/s
04:00 16.2° 1012.1 hPa 6.0 m/s 4.7 mm 11.0° 1015.7 hPa 2.9 m/s 16.0 mm 16.5° 1012.5 hPa 5.2 m/s 2.3 mm 16.5° 1012.1 hPa 8.4 m/s 0.0 mm 17.0° 1011.7 hPa 5.6 m/s 2.9 mm 13.4° 1014.9 hPa 3.9 m/s
07:00 15.4° 1012.7 hPa 4.8 m/s 4.7 mm 10.7° 1016.4 hPa 3.4 m/s 16.1 mm 15.4° 1013.1 hPa 3.0 m/s 2.5 mm 15.7° 1012.8 hPa 4.4 m/s 0.0 mm 16.8° 1011.0 hPa 5.8 m/s 6.9 mm 12.9° 1016.1 hPa 4.0 m/s
10:00 15.1° 1014.4 hPa 4.4 m/s 0.0 mm 14.5° 1016.9 hPa 3.9 m/s 16.1 mm 15.2° 1014.6 hPa 4.3 m/s 0.0 mm 14.6° 1014.8 hPa 5.0 m/s 0.0 mm 16.7° 1011.6 hPa 4.0 m/s 1.0 mm 13.0° 1017.7 hPa 3.7 m/s
13:00 16.4° 1015.2 hPa 3.8 m/s 0.0 mm 15.6° 1017.7 hPa 6.0 m/s 16.6 mm 16.3° 1014.7 hPa 3.2 m/s 0.0 mm 15.4° 1016.1 hPa 4.1 m/s 0.0 mm 16.9° 1013.3 hPa 3.7 m/s 0.0 mm 13.5° 1018.4 hPa 4.6 m/s
16:00 17.2° 1015.6 hPa 4.3 m/s 0.0 mm 15.1° 1017.9 hPa 7.1 m/s 16.7 mm 17.4° 1015.1 hPa 4.2 m/s 0.0 mm 16.4° 1017.0 hPa 4.2 m/s 0.0 mm 17.9° 1014.2 hPa 3.4 m/s 0.0 mm 14.6° 1018.4 hPa 6.0 m/s
19:00 15.5° 1016.2 hPa 5.1 m/s 0.0 mm 13.6° 1018.0 hPa 6.8 m/s 16.7 mm 16.1° 1015.6 hPa 5.4 m/s 0.0 mm 15.4° 1017.5 hPa 4.7 m/s 0.0 mm 16.0° 1015.5 hPa 4.3 m/s 0.0 mm 13.3° 1018.4 hPa 6.4 m/s
22:00 13.3° 1016.7 hPa 4.8 m/s 0.0 mm 13.1° 1017.5 hPa 7.2 m/s 16.8 mm 13.9° 1016.8 hPa 4.5 m/s 0.0 mm 13.2° 1016.7 hPa 3.7 m/s 0.0 mm 13.0° 1018.5 hPa 6.9 m/s
 06:32     20:46    Daglengte: 14:14 Donderdag 23 Aug
01:00 14.0° 1016.0 hPa 6.1 m/s 0.0 mm 13.4° 1016.1 hPa 7.4 m/s 17.2 mm 14.3° 1016.3 hPa 5.9 m/s 0.1 mm 14.0° 1016.1 hPa 4.8 m/s 0.0 mm 13.5° 1017.4 hPa 6.9 m/s
04:00 13.7° 1014.9 hPa 6.2 m/s 0.0 mm 13.1° 1014.5 hPa 6.6 m/s 17.9 mm 14.0° 1015.6 hPa 5.9 m/s 0.1 mm 13.9° 1014.7 hPa 6.2 m/s 0.0 mm 13.6° 1016.3 hPa 6.2 m/s
07:00 12.6° 1015.1 hPa 5.4 m/s 0.0 mm 10.7° 1014.9 hPa 4.8 m/s 18.3 mm 13.1° 1016.0 hPa 5.7 m/s 0.1 mm 12.7° 1014.7 hPa 5.1 m/s 0.4 mm 12.2° 1015.9 hPa 7.2 m/s
10:00 13.7° 1015.7 hPa 7.2 m/s 0.0 mm 12.4° 1015.4 hPa 8.4 m/s 18.3 mm 13.6° 1016.7 hPa 7.5 m/s 0.1 mm 14.0° 1015.6 hPa 6.7 m/s 0.0 mm 12.1° 1016.7 hPa 7.6 m/s
13:00 14.2° 1016.4 hPa 8.1 m/s 0.0 mm 12.8° 1016.0 hPa 8.6 m/s 18.6 mm 14.4° 1016.6 hPa 8.7 m/s 0.0 mm 14.4° 1016.4 hPa 7.6 m/s 0.0 mm 12.6° 1017.2 hPa 8.8 m/s
16:00 14.1° 1016.7 hPa 7.9 m/s 2.3 mm 14.2° 1016.4 hPa 8.2 m/s 19.1 mm 14.3° 1016.5 hPa 8.6 m/s 0.0 mm 14.0° 1017.0 hPa 7.6 m/s 0.4 mm 12.7° 1017.5 hPa 9.3 m/s
19:00 13.3° 1017.2 hPa 7.2 m/s 0.0 mm 13.1° 1017.2 hPa 7.4 m/s 19.2 mm 14.0° 1016.4 hPa 8.0 m/s 0.0 mm 13.2° 1017.4 hPa 6.8 m/s 0.0 mm 12.6° 1017.8 hPa 8.6 m/s
22:00 12.3° 1017.7 hPa 5.5 m/s 0.0 mm 9.6° 1019.0 hPa 4.6 m/s 19.2 mm 12.6° 1017.0 hPa 5.9 m/s 0.0 mm 12.7° 1017.7 hPa 5.6 m/s 11.4° 1019.3 hPa 7.1 m/s
 06:34     20:43    Daglengte: 14:09 Vrijdag 24 Aug
01:00 11.8° 1018.0 hPa 4.5 m/s 0.0 mm 9.9° 1019.3 hPa 4.4 m/s 19.2 mm 11.8° 1016.8 hPa 4.8 m/s 0.0 mm 12.2° 1018.0 hPa 4.4 m/s 11.1° 1019.7 hPa 6.8 m/s
04:00 11.9° 1017.3 hPa 4.5 m/s 0.0 mm 11.9° 1017.1 hPa 4.3 m/s 11.2° 1019.5 hPa 6.5 m/s 0.0 mm
07:00 11.7° 1017.0 hPa 4.5 m/s 0.0 mm 11.8° 1016.7 hPa 4.3 m/s 10.9° 1019.8 hPa 6.4 m/s 0.1 mm
10:00 12.0° 1016.7 hPa 4.9 m/s 0.1 mm 12.0° 1016.4 hPa 4.8 m/s 12.1° 1020.3 hPa 6.3 m/s 0.1 mm
13:00 12.3° 1016.4 hPa 5.4 m/s 0.2 mm 12.2° 1016.1 hPa 5.3 m/s 13.0° 1020.1 hPa 6.5 m/s 0.2 mm
16:00 12.6° 1014.5 hPa 5.0 m/s 0.1 mm 12.5° 1014.0 hPa 4.8 m/s 13.5° 1019.0 hPa 6.3 m/s 0.1 mm
19:00 12.7° 1012.5 hPa 4.5 m/s 0.5 mm 12.8° 1012.0 hPa 4.4 m/s 12.0° 1018.1 hPa 5.5 m/s 0.5 mm
22:00 12.3° 1010.1 hPa 3.3 m/s 0.2 mm 12.4° 1009.5 hPa 3.2 m/s 10.9° 1016.9 hPa 3.6 m/s 0.2 mm
 06:36     20:41    Daglengte: 14:05 Zaterdag 25 Aug
01:00 11.9° 1007.5 hPa 2.2 m/s 1.2 mm 12.1° 1006.9 hPa 2.1 m/s 10.3° 1014.2 hPa 2.8 m/s 1.2 mm
04:00 11.1° 1008.6 hPa 4.1 m/s 1.5 mm 11.2° 1008.3 hPa 4.1 m/s 10.0° 1011.5 hPa 3.6 m/s 1.5 mm
07:00 10.2° 1009.9 hPa 6.0 m/s 1.5 mm 10.3° 1009.7 hPa 6.1 m/s 9.1° 1012.3 hPa 4.5 m/s 1.5 mm
10:00 12.4° 1012.2 hPa 6.0 m/s 0.0 mm 12.6° 1012.0 hPa 6.1 m/s 10.7° 1014.6 hPa 5.5 m/s 0.0 mm
13:00 14.8° 1014.3 hPa 6.0 m/s 0.0 mm 14.9° 1014.2 hPa 6.1 m/s 13.6° 1015.6 hPa 4.7 m/s 0.1 mm
16:00 15.0° 1015.2 hPa 5.2 m/s 0.2 mm 15.0° 1015.2 hPa 5.2 m/s 14.4° 1016.1 hPa 4.9 m/s 0.2 mm
19:00 15.0° 1016.2 hPa 4.4 m/s 0.2 mm 15.1° 1016.1 hPa 4.3 m/s 13.5° 1017.0 hPa 5.0 m/s 0.2 mm
22:00 12.2° 1017.7 hPa 3.1 m/s 0.0 mm 12.3° 1017.5 hPa 3.0 m/s 10.6° 1018.9 hPa 3.3 m/s 0.0 mm
 06:38     20:39    Daglengte: 14:01 Zondag 26 Aug
01:00 9.5° 1019.0 hPa 1.8 m/s 0.0 mm 9.6° 1019.0 hPa 1.8 m/s 8.8° 1019.2 hPa 1.2 m/s 0.0 mm
04:00 9.3° 1018.8 hPa 1.8 m/s 0.0 mm 9.3° 1018.9 hPa 1.9 m/s 9.0° 1018.4 hPa 1.0 m/s 0.0 mm
07:00 9.1° 1018.7 hPa 2.1 m/s 0.0 mm 9.1° 1018.7 hPa 2.0 m/s 9.6° 1018.2 hPa 3.5 m/s 0.0 mm
10:00 11.0° 1018.0 hPa 3.2 m/s 0.0 mm 11.1° 1018.0 hPa 3.0 m/s 10.9° 1017.6 hPa 4.8 m/s 0.1 mm
13:00 12.9° 1017.3 hPa 4.3 m/s 0.5 mm 13.0° 1017.4 hPa 4.1 m/s 11.2° 1015.8 hPa 6.4 m/s 0.5 mm
16:00 13.1° 1014.7 hPa 5.3 m/s 0.2 mm 13.2° 1014.8 hPa 5.0 m/s 11.8° 1013.3 hPa 8.3 m/s 0.2 mm
19:00 13.5° 1012.2 hPa 6.1 m/s 0.6 mm 13.5° 1012.2 hPa 5.9 m/s 13.2° 1011.9 hPa 8.1 m/s 0.6 mm
22:00 14.0° 1011.7 hPa 5.4 m/s 0.0 mm 14.1° 1011.6 hPa 5.4 m/s 13.9° 1012.6 hPa 5.4 m/s 0.1 mm
 06:39     20:37    Daglengte: 13:58 Maandag 27 Aug
01:00 14.5° 1011.2 hPa 5.0 m/s 0.2 mm 14.6° 1011.0 hPa 4.9 m/s 13.2° 1013.5 hPa 5.7 m/s 0.2 mm
04:00 13.4° 1013.0 hPa 4.3 m/s 0.1 mm 13.4° 1012.8 hPa 4.2 m/s 12.3° 1014.9 hPa 6.0 m/s 0.1 mm
07:00 12.2° 1014.8 hPa 3.6 m/s 0.1 mm 12.3° 1014.6 hPa 3.5 m/s 11.0° 1016.7 hPa 5.1 m/s 0.1 mm
10:00 13.5° 1016.6 hPa 4.5 m/s 0.0 mm 13.6° 1016.5 hPa 4.5 m/s 11.9° 1018.8 hPa 4.8 m/s 0.1 mm
13:00 14.7° 1018.5 hPa 5.5 m/s 0.0 mm 14.9° 1018.3 hPa 5.5 m/s 12.4° 1020.3 hPa 5.3 m/s 0.1 mm
16:00 14.6° 1019.6 hPa 5.3 m/s 0.0 mm 14.7° 1019.5 hPa 5.2 m/s 13.1° 1021.0 hPa 5.4 m/s 0.1 mm
19:00 14.3° 1020.7 hPa 4.9 m/s 0.0 mm 14.5° 1020.6 hPa 5.0 m/s 12.7° 1021.9 hPa 4.3 m/s 0.1 mm
22:00 13.9° 1021.1 hPa 5.0 m/s 0.0 mm 14.2° 1020.9 hPa 5.2 m/s 10.8° 1023.3 hPa 2.6 m/s 0.0 mm
 06:41     20:34    Daglengte: 13:53 Dinsdag 28 Aug
01:00 13.8° 1021.1 hPa 5.4 m/s 0.0 mm 13.8° 1021.1 hPa 5.4 m/s
07:00 14.0° 1020.8 hPa 6.3 m/s 0.0 mm 14.4° 1020.7 hPa 6.5 m/s 9.3° 1022.2 hPa 4.4 m/s 0.0 mm
13:00 15.7° 1022.4 hPa 7.5 m/s 0.0 mm 15.8° 1022.6 hPa 7.6 m/s 14.1° 1020.4 hPa 6.1 m/s 0.0 mm
19:00 15.2° 1022.9 hPa 6.3 m/s 0.0 mm 15.2° 1023.5 hPa 6.3 m/s 14.7° 1016.5 hPa 6.7 m/s 0.1 mm
 06:43     20:32    Daglengte: 13:49 Woensdag 29 Aug
01:00 13.7° 1023.8 hPa 4.8 m/s 0.5 mm 13.6° 1024.5 hPa 4.8 m/s 14.2° 1016.6 hPa 4.9 m/s 0.5 mm
07:00 13.3° 1024.4 hPa 4.1 m/s 0.3 mm 13.5° 1024.8 hPa 4.0 m/s 11.4° 1019.5 hPa 4.8 m/s 0.3 mm
13:00 15.9° 1026.3 hPa 4.8 m/s 0.0 mm 16.2° 1026.6 hPa 4.8 m/s 13.2° 1023.3 hPa 4.3 m/s 0.1 mm
19:00 16.0° 1026.5 hPa 4.0 m/s 0.0 mm 16.2° 1026.6 hPa 4.0 m/s 13.6° 1025.8 hPa 4.4 m/s 0.0 mm
 06:45     20:30    Daglengte: 13:45 Donderdag 30 Aug
01:00 13.0° 1027.8 hPa 2.1 m/s 0.0 mm 13.3° 1027.7 hPa 2.1 m/s 10.1° 1028.7 hPa 2.1 m/s 0.1 mm
07:00 13.3° 1027.5 hPa 1.2 m/s 0.0 mm 13.6° 1027.3 hPa 1.2 m/s 9.5° 1030.2 hPa 1.8 m/s 0.0 mm
13:00 17.9° 1028.4 hPa 2.7 m/s 0.0 mm 18.2° 1028.1 hPa 2.8 m/s 14.4° 1032.0 hPa 1.9 m/s 0.0 mm
19:00 14.3° 1033.0 hPa 0.7 m/s 0.0 mm 14.3° 1033.0 hPa 0.7 m/s 0.1 mm
 06:46     20:27    Daglengte: 13:41 Vrijdag 31 Aug
01:00 11.7° 1026.4 hPa 1.9 m/s 0.7 mm
07:00 11.0° 1025.1 hPa 1.8 m/s 1.0 mm
13:00 15.7° 1025.5 hPa 2.2 m/s 0.6 mm
19:00 15.8° 1025.0 hPa 1.8 m/s 0.2 mm
 06:48     20:25    Daglengte: 13:37 Zaterdag 01 Sep
01:00 11.3° 1025.7 hPa 1.1 m/s 0.1 mm
07:00 10.5° 1024.8 hPa 1.2 m/s 0.1 mm
13:00 16.4° 1024.9 hPa 2.1 m/s 0.2 mm
19:00 16.9° 1023.4 hPa 1.9 m/s 0.2 mm
 06:50     20:23    Daglengte: 13:33 Zondag 02 Sep
01:00 12.4° 1023.1 hPa 2.0 m/s 0.4 mm
07:00 11.7° 1022.1 hPa 1.8 m/s 0.5 mm
13:00 17.1° 1022.0 hPa 2.6 m/s 0.1 mm
19:00 16.7° 1021.0 hPa 2.5 m/s 0.2 mm
 06:51     20:20    Daglengte: 13:29 Maandag 03 Sep
01:00 12.5° 1021.7 hPa 1.1 m/s 0.2 mm
07:00 11.5° 1021.2 hPa 0.2 m/s 0.2 mm
13:00 16.4° 1021.7 hPa 0.9 m/s 0.3 mm
19:00 16.1° 1021.2 hPa 1.4 m/s 0.7 mm
 06:53     20:18    Daglengte: 13:25 Dinsdag 04 Sep
01:00 11.6° 1021.8 hPa 0.5 m/s 0.2 mm
07:00 10.7° 1021.1 hPa 0.6 m/s 0.2 mm
13:00 16.1° 1021.3 hPa 1.3 m/s 0.3 mm
19:00 15.7° 1020.6 hPa 1.7 m/s 0.7 mm
 06:55     20:15    Daglengte: 13:20 Woensdag 05 Sep
01:00 11.7° 1021.1 hPa 1.2 m/s 0.5 mm
FMI Hirlam - 7.5 km EWN WRFDA - 12 km DWD ICON - 7 km GFS - 25 km Basiskaart






























































Updatetijd (Europe/Amsterdam) Resolutie Lengte Stap
FMI Hirlam 01:00, 07:00, 13:00, 19:00 7.5 km 49h 1h
EWN WRFDA 22:00, 04:00, 10:00, 16:00 12 km 73h 1h
DWD ICON 01:00, 07:00, 13:00, 19:00 7 km 75h 1h
GFS 03:15, 09:15, 15:15, 21:15 25 km 237h 3h
30+ mm
25-30 mm
20-25 mm
15-20 mm
10-15 mm
6-10 mm
4-6 mm
2-4 mm
1-2 mm
0.5-1 mm
0.2-0.5 mm
0.1-0.2 mm
30+ mm
25-30 mm
20-25 mm
15-20 mm
10-15 mm
6-10 mm
4-6 mm
2-4 mm
1-2 mm
0.5-1 mm
0.2-0.5 mm
0.1-0.2 mm
Sneeuwval
Natte sneeuw
Hagel
Vorst
30+ mm
25-30 mm
20-25 mm
15-20 mm
10-15 mm
6-10 mm
4-6 mm
2-4 mm
1-2 mm
0.5-1 mm
0.2-0.5 mm
0.1-0.2 mm
Sneeuwval
Natte sneeuw
Hagel
Vorst
Onweer
50 mm
40 mm
30 mm
26 mm
22 mm
18 mm
14 mm
10 mm
9 mm
8 mm
7 mm
6 mm
5 mm
4.5 mm
4 mm
3.5 mm
3 mm
2.5 mm
2 mm
1.5 mm
1 mm
0.8 mm
0.6 mm
0.4 mm
0.2 mm
0.05 mm
35°
30°
25°
20°
15°
10°
-5°
-10°
-15°
-20°
-25°
-30°
-35°
33> m/s
29 m/s
25 m/s
21 m/s
17 m/s
14 m/s
11 m/s
8 m/s
5 m/s
3 m/s
0 m/s
2600 J/kg
2400 J/kg
2200 J/kg
2000 J/kg
1800 J/kg
1600 J/kg
1400 J/kg
1200 J/kg
1000 J/kg
800 J/kg
600 J/kg
400 J/kg
200 J/kg
70 dBZ
65 dBZ
60 dBZ
55 dBZ
50 dBZ
45 dBZ
40 dBZ
35 dBZ
30 dBZ
25 dBZ
20 dBZ
15 dBZ
10 dBZ
5 dBZ
-1 K
-2 K
-3 K
-4 K
-5 K
-6 K
-7 K
-8 K
-9 K
950 m²/s²
900 m²/s²
850 m²/s²
800 m²/s²
750 m²/s²
700 m²/s²
650 m²/s²
600 m²/s²
550 m²/s²
500 m²/s²
450 m²/s²
400 m²/s²
350 m²/s²
300 m²/s²
250 m²/s²
200 m²/s²
150 m²/s²
100 m²/s²
46 m/s
44 m/s
42 m/s
40 m/s
38 m/s
36 m/s
34 m/s
32 m/s
30 m/s
28 m/s
26 m/s
24 m/s
22 m/s
20 m/s
16 m/s
12 m/s
8 m/s
4 m/s
30 m/s
28 m/s
26 m/s
24 m/s
22 m/s
20 m/s
18 m/s
16 m/s
14 m/s
12 m/s
10 m/s
8 m/s
6 m/s
4 m/s
2 m/s
3.0
2.8
2.6
2.4
2.2
2.0
1.8
1.6
1.4
1.2
1.0
0.8
0.6
0.4
0.2
15
14
13
12
11
10
9
8
7
6
5
4
3
2
1
90%
80%
70%
60%
50%
40%
30%
20%
10%
42
40
38
36
34
32
30
28
26
24
22
20
18
16
14
12
90+ cm
80-90 cm
70-80 cm
60-70 cm
50-60 cm
40-50 cm
30-40 cm
20-30 cm
10-20 cm
1-10 cm
Sneeuwval
Natte sneeuw
Regen
>120 mm
115 mm
110 mm
105 mm
100 mm
95 mm
90 mm
85 mm
80 mm
75 mm
70 mm
65 mm
60 mm
55 mm
50 mm
45 mm
45 mm
40 mm
35 mm
30 mm
25 mm
20 mm
15 mm
10 mm
5 mm
0.1 mm
960 hPa
880 hPa
800 hPa
720 hPa
640 hPa
560 hPa
584 gpdm
568 gpdm
552 gpdm
536 gpdm
520 gpdm
504 gpdm
488 gpdm
Extreem zwaar Noodweer Kans op onweer
15% 15% 5% 50% 15%

Dag




Kaart






35°
30°
25°
20°
15°
10°
-5°
-10°
-15°
-20°
-25°
-30°
-35°
33> m/s
29 m/s
25 m/s
21 m/s
17 m/s
14 m/s
11 m/s
8 m/s
5 m/s
3 m/s
0 m/s
Extreem zwaar Noodweer Kans op onweer
15% 15% 5% 50% 15%
>120 mm
115 mm
110 mm
105 mm
100 mm
95 mm
90 mm
85 mm
80 mm
75 mm
70 mm
65 mm
60 mm
55 mm
50 mm
45 mm
45 mm
40 mm
35 mm
30 mm
25 mm
20 mm
15 mm
10 mm
5 mm
0.1 mm
Onweer risico kaarten - De groene en gele kleur geeft de kans op onweer aan binnen 40 km van een punt. Oranje, rood en violet hebben hetzelfde niveau zoals je het ziet op estofex.org waaronder ook de kans op hagel en supercells.

dBZ - dBZ staat voor decibel ten opzichte van Z.

Cape - Convective available potential energy (CAPE), is de totale hoeveelheid energie die een luchtpakketje nodig heeft om zover mogelijk te stijgen in de atmosfeer.

K Index - K-Index wordt berekend door de Vertical Totals (VT) en het verschil tussen de 850 hPa temperatuur en de 700 hPa dauwpuntsdepressie (Tdd 700) bij elkaar op te tellen.

TT Index - Convectie index wordt gebruikt voor het voorspellen van zware buien of onweer.

WRF - The Weather Research and Forecasting (WRF) is een volgende generatie mesoscale numeriek weersvoorspelling systeem ontworpen om zowel de operationele planning als het atmosferisch onderzoek te dienen. WRF is a cooperatie tussen het National Center for Atmospheric Research (NCAR), National Centers for Environmental Prediction (NCEP), Forecast Systems Laboratory (FSL), Air Force Weather Agency (AFWA), Naval Research Laboratory, University of Oklahoma, en de Federal Aviation Administration (FAA). Deze software draait op onze server.

WRFDA - Een meer geavanceerde versie van WRF

Arome - Het 2.5 km Arome model. Verzorgd door het Noors Meteorologisch Instituut.

MET Norway - De proff-default 4km meteorological data is een beste keus selectie van meteorologische modellen gebruikt door met.no die zijn geïnterpoleerd tot een gemeenschappelijke dataset. Verzorgd door het Noorse Meteorologisch Instituut.

SMHI - Het Hirlam model verzorgd door het Zweeds meteorologisch instituut.

FMI - Het Hirlam model verzorgd door het Fins meteorologisch instituut. Dekking alleen Finland.

GFS - Het Global Forecast Systeem (GFS) is een wereldwijd numerieke weersvoorspelling computermodel, gerund door NOAA.

GEM-GDPS - Het GEM-GDPS is a wereldwijd numeriek weersvoorspelling computermodel verzorgd door het Canadees Meteorologisch Centrum.

Credits/Info: Dank aan Stefan Gofferje van sääkeskus.fi voor enkele formules van GrADS. Info: Wikipedia.

Betrouwbaarheid van de verwachting

NB! 2015-03-29: Rebuilding the accuracy-test!

EWNACC
Day 1 Good forecasts

Dag 1 Tmax

Dag 2 Tmax

Geladen verwachtingen TOP 50

Totaal geladen verwachtingen:
Plaats Latitude Longitude Verwachtingen Plaats Latitude Longitude Verwachtingen